CAPE
0 0 0 40 191 215 45 157 359 164 140 136 112 245 273 468 393 575 363 448 509 540 797 1057 1219 1390 1482 1367 1144 1181 1372 1746 1877 1896 1672 1608 1911 1789 1139 1679 1526 1112 1009 1568 1384 1663 1485 1730 2210
2 14 104 245 144 1 98 103 194 125 130 153 161 263 312 370 284 375 338 410 355 554 745 879 1195 1400 1449 1491 1486 1548 1573 1615 1609 1629 1806 1734 1865 1174 1686 1749 1387 1795 1408 1233 1561 1622 1437 1966 2027
124 163 285 244 356 0 98 206 183 141 128 177 336 508 276 232 219 413 280 251 273 353 509 887 1288 1630 1732 1920 1901 1928 1934 1918 1888 1862 1590 1591 1709 1663 1649 1590 1393 1503 1591 1446 1563 1623 1335 1532 1800
242 270 291 376 57 67 250 108 121 153 129 82 116 233 168 289 215 298 308 172 89 512 782 1144 1526 1766 1713 1705 1939 1868 1793 1788 1776 1727 1613 1755 1358 1409 1447 1579 1552 1606 1684 1497 1325 1449 1472 1559 1466
202 273 334 328 0 16 215 233 188 247 61 51 174 217 120 243 236 270 134 140 16 487 684 1213 1598 1731 1850 1805 1789 1601 1707 1783 1627 1714 1662 1873 1668 1588 1458 1543 1593 1640 1448 1341 1300 1209 1294 1307 1262
229 483 371 40 22 133 238 279 304 269 313 250 115 180 105 198 193 122 125 72 143 155 403 933 1628 1725 1676 1742 1803 1757 1727 1707 1617 1592 1742 1784 1399 1487 1640 1592 1611 1521 1444 1307 1039 1314 1346 1316 1137
12 209 252 142 85 286 321 422 496 421 371 354 174 275 181 201 246 286 170 28 1 259 224 705 1456 1664 1602 1717 1545 1544 1672 1671 1746 1766 1694 1530 1688 1874 1625 1638 1475 1284 1271 1212 1092 1103 1171 1158 740
4 28 333 172 228 72 170 585 331 474 354 527 498 153 154 132 220 95 67 23 17 207 281 978 1407 986 1389 1454 1856 1718 1643 1578 1671 1640 1242 1162 1631 1408 1149 1164 1291 1225 1204 1124 1031 1082 1104 1000 663
7 0 251 154 113 48 1 307 648 469 455 452 630 284 225 119 86 61 40 38 129 37 236 408 490 649 1007 1216 1617 1680 1489 1473 1657 1799 1376 1267 1332 1294 1104 893 1230 1189 1034 1038 1144 1349 1109 959 785
3 7 228 122 237 0 0 183 780 588 336 356 650 388 236 114 84 58 38 44 90 50 88 68 315 474 582 847 1258 1419 1366 1146 1222 1348 986 1294 957 1319 617 651 1168 1166 1028 869 1096 956 914 692 577
0 0 12 53 163 31 111 88 13 396 300 294 645 338 222 171 76 21 29 22 99 31 60 239 723 835 305 508 1547 1462 1091 1477 1179 1061 607 1181 1316 746 822 601 806 731 929 754 806 750 424 393 311
2 2 1 15 115 366 221 599 261 198 213 292 514 309 205 135 33 6 25 7 40 33 55 564 554 497 382 413 1092 645 867 1472 874 937 1236 1192 891 594 51 1079 1221 733 900 349 346 577 526 447 463
0 0 1 26 4 350 337 183 242 103 0 108 488 259 188 170 25 31 28 4 3 23 219 501 629 864 564 489 500 582 554 575 974 720 1188 465 1035 674 488 863 741 358 531 718 217 485 436 634 356
0 0 0 8 0 361 145 489 254 251 105 491 405 209 246 205 115 211 32 4 0 6 173 278 172 788 405 715 969 291 926 871 971 964 1128 1033 1137 840 1132 1120 618 561 0 437 825 483 139 821 572
0 0 0 0 0 390 204 320 480 480 363 282 462 267 182 278 189 80 47 6 0 3 162 229 206 485 400 1003 956 643 413 55 940 1038 1288 1172 1303 1528 1209 1236 470 533 389 1052 1207 724 723 230 234
0 0 0 0 0 48 305 250 583 366 293 443 464 421 388 341 202 153 161 21 0 0 58 133 117 199 505 1131 561 675 888 832 1039 1035 1175 1194 1583 1710 1280 1347 1197 1318 1032 165 713 404 215 214 295
0 0 0 0 0 0 214 252 521 323 217 564 472 516 399 323 285 321 198 61 0 7 34 86 244 143 507 957 480 634 637 708 711 943 1235 1538 1587 1354 655 963 1253 1023 1522 948 427 72 11 792 339
0 0 0 0 0 0 26 178 173 39 6 54 568 408 425 262 268 261 191 158 0 5 36 148 205 227 720 980 631 627 636 912 377 975 1250 1650 1632 1498 1020 1101 1309 1434 1187 527 115 771 314 783 35
0 0 0 0 0 0 8 137 45 0 0 2 472 332 380 325 218 268 192 205 0 0 25 183 56 448 381 795 689 465 608 521 1061 715 1188 1743 1368 1489 1282 1249 1436 1531 1080 1014 933 1112 566 522 87
0 0 0 0 0 0 0 26 69 4 0 30 12 329 247 361 281 273 173 217 37 0 2 39 139 638 279 921 662 508 779 253 599 1051 1735 1240 1091 1425 1299 958 1354 1431 1334 1051 1196 81 55 521 15
0 0 0 0 0 0 0 14 105 7 3 56 0 454 139 411 284 299 157 183 124 7 39 9 290 868 352 399 356 495 553 409 783 1065 1096 1040 1401 1367 1543 1575 1600 1596 1565 1103 1047 693 613 499 12
0 0 0 0 0 0 0 0 76 321 49 21 286 462 306 289 344 356 164 237 151 96 120 105 361 983 344 322 144 220 377 616 342 855 1205 1078 1561 1395 1506 1666 1681 1463 1294 1205 1008 1439 1076 975 212
0 0 0 0 0 0 0 0 0 40 72 7 1 392 352 177 432 356 282 191 197 161 182 391 356 938 498 212 546 180 347 521 1032 493 1094 1477 1367 1658 1321 1506 1682 1403 1383 1438 1186 1518 1302 1355 841
0 0 0 0 0 0 0 0 0 11 280 21 0 30 329 290 207 493 428 298 283 222 137 492 544 739 744 188 537 342 188 689 500 263 1088 1611 1277 1291 1545 1683 1569 1414 1416 1409 1760 1770 1292 1660 1359
0 0 0 0 0 0 0 0 0 0 147 110 0 96 377 499 406 321 461 489 385 317 228 271 751 647 830 715 210 985 179 378 833 574 1032 662 1200 975 1151 1616 1669 1385 1408 1366 1640 1616 1788 1642 1650
0 0 0 0 0 0 0 0 0 0 0 215 20 142 23 269 522 390 523 602 603 547 381 260 849 830 858 1057 126 519 984 286 694 1318 392 1024 369 839 1236 1192 1757 1826 1533 1789 1712 1838 1860 1756 1270
0 0 0 0 0 0 0 0 0 0 0 0 110 12 0 0 704 532 601 653 865 720 639 506 681 1058 1071 914 1020 162 1073 1205 606 951 1049 565 695 775 1511 1392 2002 1646 1866 1647 1794 1656 1371 1771 1807
0 0 0 0 0 0 0 0 0 0 0 0 0 24 4 19 108 665 595 700 858 872 936 846 853 1093 1310 932 1319 786 548 844 785 449 1140 1003 937 362 1877 1916 1785 1754 2059 1628 1923 1644 1315 1484 1534
0 0 0 0 3 0 0 0 0 0 0 0 0 0 60 86 40 591 707 744 797 954 996 1095 1117 1239 1472 1558 1208 1170 809 595 359 617 325 1224 1049 2013 1150 1567 1447 1854 1650 1984 1776 1604 1927 1851 1696
1 1 0 17 0 6 0 0 3 0 0 0 0 0 2 74 122 20 85 850 898 966 1040 1198 1197 1620 1731 1772 1608 1251 1471 1063 731 121 772 1720 1207 1239 2293 1428 2049 1565 1706 1769 1775 1851 1616 1938 1755
CIN
0 0 0 -25 -1 0 -4 -12 -3 -2 -7 -3 -7 -20 -25 -5 -4 -11 -30 -2 -7 -10 -9 0 -1 0 0 -2 -15 -13 -6 -1 0 0 0 -1 0 0 -11 0 0 -1 -1 0 0 0 0 0 0
-27 -44 -5 -1 0 -5 -10 -24 -29 -13 -6 -22 -6 -7 -2 -10 -79 -57 -22 -3 -17 -14 -7 -7 -1 0 0 -1 -1 0 0 0 0 0 0 -1 0 -3 0 0 0 0 0 0 0 0 0 0 0
-28 -4 0 -1 -2 -9 -16 -4 -1 -2 -7 -12 -14 -38 -29 -29 -49 -54 -26 -23 -14 -8 -8 -9 -1 -1 0 0 0 0 0 0 0 0 -2 -1 0 -1 0 0 0 0 0 -1 0 0 0 0 -2
-8 -3 -1 -1 -8 -28 -35 -28 -7 -3 -11 -35 -48 -19 -18 -13 -31 -47 -23 -15 -70 -9 -11 -3 -1 0 0 0 0 0 0 0 0 0 0 0 -1 -1 0 0 0 0 0 0 -2 -1 0 0 -9
-7 -6 0 -4 -3 -11 -64 -3 -3 -4 -21 -33 -30 -33 -14 -12 -36 -13 -20 -19 -122 -5 -9 0 -1 0 0 0 0 0 0 0 0 0 0 0 0 0 0 0 0 0 0 -2 -2 -8 -10 -12 -21
-15 0 -5 -30 -19 -57 -10 -4 -3 -6 -17 -63 -84 -66 -47 -17 -32 -16 -17 -72 -52 -45 -16 0 0 0 0 0 0 0 0 0 0 0 0 0 -2 -2 -1 0 0 -1 0 -1 -10 -6 -10 -18 -31
-6 -6 -19 -57 -19 -39 -4 -9 -6 -3 -2 -10 -87 -54 -30 -29 -8 -6 -16 -3 -43 -12 -38 -4 0 0 0 0 0 0 0 0 0 0 0 -3 -3 0 0 0 -1 -15 -18 -17 -20 -22 -26 -33 -54
-2 -48 -5 -12 -13 -44 -79 -9 -18 -6 -5 -3 -30 -97 -107 -47 -7 -14 -13 -3 -36 -26 -31 -2 -1 -5 0 0 0 0 0 0 0 0 -17 -34 -18 -16 -18 -10 -8 -13 -15 -25 -29 -34 -40 -43 -61
-4 0 -3 -18 -61 -31 -43 -15 -6 -4 -4 -2 -2 -107 -83 -60 -35 -24 -1 -2 -40 -111 -23 -7 -9 -15 -1 -2 0 0 -5 -9 -2 0 -22 -20 -10 -8 -17 -24 -28 -20 -32 -32 -20 -15 -24 -39 -50
-2 -2 -24 -24 -35 0 0 -135 -48 -6 -4 -25 -1 -50 -53 -59 -33 -42 -1 -1 -92 -87 -53 -65 -3 -17 -6 -1 -18 -12 -20 -29 -20 -13 -20 -6 -18 -3 -25 -48 -29 -30 -34 -26 -22 -45 -55 -25 -92
0 0 -48 -42 -16 -148 -46 -106 -14 -2 -3 -13 -9 -31 -57 -54 -37 -49 -1 -2 -93 -182 -92 -15 -14 -7 -7 -18 -19 -8 -19 -10 -16 -3 -46 -19 -4 -29 -12 -41 -31 -48 -39 -21 -31 -61 -104 -70 -117
-2 -2 -1 -9 -21 -8 -26 -5 -75 -50 -94 -61 -8 -28 -47 -62 -63 -38 -1 -2 -170 -226 -135 -24 -24 -11 -16 -19 -9 -5 -14 -3 -10 -9 -6 -2 -22 -40 -89 -24 -9 -29 -26 -39 -170 -21 -62 -90 -95
0 0 -3 -12 -2 -2 -4 -35 -142 -98 0 -75 -5 -36 -47 -45 -53 -41 -4 -6 -2 -161 -23 -26 -11 -7 -4 -13 -9 -13 -11 -6 -11 -19 -6 -49 -9 -44 -50 -25 -32 -112 -53 -62 -109 -52 -67 -42 -36
0 0 0 -3 0 -2 -11 -18 -58 -56 -200 -37 -38 -82 -40 -34 -24 -4 -28 -7 0 -3 -15 -18 -36 -6 -13 -12 -5 -17 -26 -21 -13 -9 -6 -22 -18 -15 -13 -8 -75 -45 0 -76 -21 -34 -77 -38 -19
0 0 0 0 0 -4 -10 -11 -9 -23 -13 -67 -32 -83 -89 -34 -4 -15 -43 -19 0 -118 -23 -20 -26 -6 -15 -4 -11 -7 -16 -211 -15 -17 -11 -20 -8 -1 -7 -7 -36 -77 -69 -33 -7 -9 -23 -52 -50
0 0 0 0 0 -27 -6 -4 -41 -107 -118 -6 -9 -28 -31 -17 -14 -6 -7 -98 0 0 -70 -29 -20 -26 -11 -3 -16 -11 -3 -23 -9 -11 -13 -6 -5 -4 -21 -3 -7 -8 -18 -36 -29 -32 -44 -51 -40
0 0 0 0 0 0 -3 -12 -52 -136 -132 -7 -2 -2 -5 -12 -4 -4 -8 -57 0 -67 -116 -40 -9 -32 -10 -7 -13 -11 -4 -9 -17 -6 -4 -2 -1 -26 -55 -20 -12 -11 -9 -17 -38 -46 -31 -16 -19
0 0 0 0 0 0 -3 -14 -180 -111 -20 -136 -7 -3 -1 -20 -17 -11 -10 -24 0 -72 -144 -22 -14 -25 -2 -5 -6 -5 -6 -7 -21 -18 -15 -11 -4 -3 -24 -17 -10 -15 -15 -19 -54 -28 -38 -17 -89
0 0 0 0 0 0 -3 -30 -157 0 0 -73 -13 -4 -3 -3 -13 -6 -11 -14 0 0 -171 -29 -67 -25 -11 -4 -3 -9 -8 -8 -7 -16 -24 -5 -8 -1 -22 -27 -10 -10 -7 -14 -9 -7 -11 -14 -88
0 0 0 0 0 0 0 -11 -171 -39 0 -107 -113 -7 -2 -2 -10 -12 -15 -13 -91 0 -56 -144 -54 -27 -33 -2 -5 -6 -2 -8 -12 -16 -5 -8 -2 -3 -16 -24 -9 -4 -7 -7 -10 -49 -93 -17 -26
0 0 0 0 0 0 0 -6 -201 -164 -51 -132 -8 -13 -5 -2 -9 -28 -40 -35 -49 -72 -180 -209 -52 -26 -47 -17 -17 -8 -5 -9 -6 -4 -13 -14 -1 -1 -7 -16 -12 -10 -12 -10 -10 -19 -26 -21 -25
0 0 0 0 0 0 0 0 -29 -103 -115 -216 -23 -12 -4 -3 -9 -15 -62 -27 -63 -129 -131 -139 -66 -20 -68 -38 -48 -31 -16 -5 -5 -8 -5 -12 -2 -1 -5 -6 -11 -17 -5 -12 -11 -6 -4 -14 -33
0 0 0 0 0 0 0 0 0 -23 -51 -129 -4 -33 -3 -5 -6 -38 -76 -95 -79 -83 -125 -101 -91 -28 -77 -77 -25 -50 -18 -6 -3 -9 -6 -11 -6 -1 -6 -4 -8 -18 -16 -5 -13 -5 -8 -14 -8
0 0 0 0 0 0 0 0 0 -2 -58 -184 0 -73 -6 -5 -12 -16 -51 -66 -46 -53 -113 -81 -97 -68 -68 -110 -49 -52 -57 -8 -5 -18 -10 -6 -11 -4 -1 -4 -10 -15 -15 -11 -9 -10 -19 -17 -12
0 0 0 0 0 0 0 0 0 0 -38 -150 0 -109 -7 -7 -10 -21 -37 -52 -74 -75 -127 -150 -123 -117 -86 -82 -114 -21 -91 -41 -11 -9 -12 -13 -6 -13 -12 -3 -6 -16 -15 -11 -12 -15 -12 -16 -19
0 0 0 0 0 0 0 0 0 0 0 -50 -126 -69 -80 -37 -29 -84 -46 -70 -104 -95 -128 -177 -147 -151 -116 -71 -204 -91 -28 -60 -32 -6 -15 -4 -22 -4 -23 -28 -17 -4 -8 -5 -10 -13 -15 -16 -23
0 0 0 0 0 0 0 0 0 0 0 0 -42 -83 0 0 -6 -35 -96 -74 -84 -105 -124 -168 -174 -147 -120 -121 -90 -184 -57 -26 -31 -16 -10 -21 -5 -7 -25 -35 -16 -15 -3 -6 -9 -10 -14 -6 -9
0 0 0 0 0 0 0 0 0 0 0 0 0 -30 -53 -69 -190 -6 -31 -75 -87 -110 -105 -101 -121 -148 -105 -120 -50 -115 -146 -88 -38 -49 -14 -13 -14 -26 -23 -28 -27 -15 -2 -3 -3 -10 -13 -20 -16
0 0 0 0 -4 0 0 0 0 0 0 0 0 0 -79 -137 -71 -12 -14 -16 -52 -84 -84 -92 -71 -100 -79 -55 -69 -62 -114 -118 -119 -58 -114 -28 -25 -8 -7 -5 -15 -9 -14 -1 -2 -7 -10 -13 -17
-4 -1 0 -8 0 -9 0 0 -34 -1 0 0 0 0 -1 -148 -208 -56 -64 -10 -30 -32 -60 -79 -85 -45 -77 -56 -52 -77 -38 -83 -105 -263 -75 -10 -31 -31 -9 -10 -2 -27 -15 -10 -5 -11 -8 -3 -10
Wind_Speed
23 23 21 16 17 17 13 24 21 26 24 22 18 15 17 15 15 18 31 27 29 29 27 29 29 30 28 27 28 27 25 24 25 25 24 24 24 24 22 19 19 18 15 15 21 20 19 15 11
24 22 18 17 16 13 11 26 25 25 23 21 20 21 18 20 21 29 29 30 30 28 29 28 28 28 29 28 27 26 26 24 24 24 24 25 25 25 24 23 21 20 18 14 18 21 22 16 14
22 21 18 6 11 14 19 23 26 24 22 18 17 12 12 18 26 27 31 30 30 31 25 25 29 24 25 29 28 27 26 25 25 25 24 25 25 25 25 25 24 20 12 10 19 24 23 23 7
20 19 17 16 11 11 22 24 24 26 19 19 18 15 19 21 25 31 31 32 29 24 23 25 27 23 17 17 15 26 26 26 25 25 25 25 25 25 25 24 25 25 14 5 23 25 27 26 18
20 18 18 16 15 19 21 21 24 22 20 19 20 20 21 18 29 30 31 31 27 24 24 25 24 20 13 12 19 22 26 26 26 26 25 26 25 25 24 23 24 24 23 25 25 25 26 24 23
13 17 20 21 21 14 20 22 19 19 19 19 20 23 15 25 29 30 31 28 25 24 25 24 21 18 17 19 18 22 26 26 26 26 26 26 25 25 23 23 23 25 26 26 26 28 27 24 24
22 21 24 20 13 15 17 16 18 17 19 20 22 18 17 22 28 29 29 26 23 25 23 24 21 18 22 20 23 26 27 26 26 26 26 26 25 25 24 24 24 25 26 26 26 26 26 25 25
21 27 24 17 17 9 18 16 17 18 14 17 15 11 20 26 28 26 26 23 24 22 22 22 24 23 26 28 25 27 27 26 26 27 26 26 26 25 25 26 25 25 25 25 25 25 25 24 24
25 25 24 20 21 21 15 14 13 14 15 15 12 15 23 30 27 23 24 22 22 21 25 24 24 28 27 24 24 27 26 26 26 26 26 26 24 25 25 25 25 25 24 24 24 24 25 24 19
29 26 22 20 15 14 12 26 10 13 15 16 9 18 26 29 25 26 24 23 22 21 26 23 26 25 28 21 26 26 26 26 26 25 24 22 23 23 24 23 24 24 23 23 24 25 20 9 11
9 28 22 26 19 12 21 22 8 16 15 17 14 20 27 26 25 26 23 22 20 22 26 25 20 28 28 21 27 25 25 25 24 23 21 21 22 5 15 22 23 23 23 23 23 24 24 18 18
29 31 22 27 21 18 16 9 20 10 8 10 14 22 27 26 27 26 22 21 18 21 18 14 11 28 14 25 27 19 25 26 23 23 20 21 20 21 18 19 19 16 17 9 19 19 19 24 24
28 27 31 17 16 21 16 14 10 13 13 22 13 22 26 25 27 26 22 20 18 19 15 19 22 10 29 27 23 19 26 24 19 21 21 19 18 20 19 17 21 17 20 20 19 18 20 19 20
26 25 34 27 27 17 23 9 7 12 21 15 14 18 24 24 29 25 21 20 19 21 11 7 7 6 23 22 14 21 3 10 18 21 21 20 15 21 19 16 4 15 15 18 18 19 15 12 9
33 36 34 34 32 11 14 15 18 10 16 18 17 18 22 26 29 21 20 19 19 20 9 9 7 9 7 23 19 20 5 2 21 8 19 20 18 7 16 19 21 19 18 18 19 22 22 18 22
32 37 38 34 32 29 2 15 9 7 8 8 16 18 24 26 26 22 20 19 19 20 9 10 12 15 3 18 27 23 5 19 11 21 21 20 15 10 12 14 20 20 20 17 14 21 18 20 18
27 35 38 36 24 30 9 15 11 14 13 8 15 17 23 27 26 24 20 18 18 17 11 8 6 9 7 6 29 25 21 10 10 21 22 20 8 11 18 16 16 18 17 21 20 16 21 16 18
28 28 36 32 34 8 34 15 10 6 27 29 7 12 22 27 30 24 21 17 17 15 12 8 4 8 5 2 27 27 21 10 17 16 18 19 20 20 20 18 18 16 22 19 22 18 20 19 20
35 35 32 32 30 30 13 14 11 11 25 29 29 11 24 29 31 23 22 17 16 15 13 9 8 9 6 3 12 29 21 26 22 16 22 21 20 19 19 18 19 16 21 21 19 17 19 20 22
36 36 36 32 33 22 20 18 10 15 28 42 38 13 24 28 28 28 25 21 18 15 13 12 8 8 7 6 30 29 24 28 26 16 21 15 21 11 20 19 18 18 18 19 18 20 17 17 18
31 37 36 34 28 34 26 20 13 10 7 44 45 15 21 25 25 26 28 24 19 17 15 14 9 8 8 12 21 30 29 29 15 13 7 14 21 21 19 19 17 18 17 19 20 21 19 17 21
37 32 36 38 35 37 24 36 17 15 16 35 35 13 20 20 21 24 25 25 24 19 15 13 12 9 10 14 11 32 30 29 29 27 20 16 21 21 18 16 18 18 16 19 19 18 18 18 19
38 33 33 37 40 39 41 33 33 18 19 20 49 34 17 18 22 23 25 26 26 21 17 14 14 11 10 13 22 18 34 32 29 13 19 10 21 22 18 13 15 18 19 17 17 17 18 17 18
31 34 37 36 38 47 42 43 35 25 18 16 10 45 14 17 19 20 22 22 24 23 22 18 16 15 12 14 24 13 37 33 29 31 5 4 12 21 22 14 13 16 18 15 17 18 18 17 14
30 33 39 42 44 49 38 44 43 32 18 15 13 24 22 18 19 19 20 23 24 24 26 24 22 19 17 15 16 23 17 38 33 29 2 7 8 14 19 14 12 14 17 15 17 19 19 17 18
35 32 40 44 41 47 39 48 49 43 40 17 15 17 17 41 23 22 22 23 24 25 27 26 24 21 20 17 21 15 14 41 36 28 26 7 15 15 14 13 11 14 16 17 17 18 18 17 15
38 40 38 47 44 51 43 36 49 39 41 33 17 18 32 59 24 24 22 22 22 24 25 25 22 22 20 21 17 18 15 16 28 29 24 29 31 22 8 10 9 14 17 18 16 18 18 15 14
34 38 39 43 52 55 48 47 43 36 38 39 36 18 16 33 49 23 19 20 20 21 21 20 18 20 19 19 18 18 18 17 23 39 26 26 30 32 5 8 9 11 17 19 16 19 17 15 15
35 40 44 39 43 53 51 45 35 34 29 31 40 36 19 20 38 16 16 19 18 19 20 22 21 17 18 19 19 18 18 18 18 20 18 11 37 28 10 3 1 6 13 16 17 20 19 15 14
36 41 43 46 44 45 52 45 18 27 22 27 30 37 28 16 21 12 17 18 18 18 20 21 24 20 19 18 19 20 20 19 19 20 15 13 13 25 21 8 6 0 5 12 15 16 21 16 15
Wind_Direction
196 189 182 263 275 237 139 135 148 90 88 79 64 62 55 39 80 80 114 111 113 112 110 119 117 128 148 153 148 145 147 144 135 125 115 106 90 77 58 33 34 29 17 18 62 61 53 40 12
171 179 239 283 274 323 221 93 87 117 78 66 73 76 50 52 65 100 104 109 110 107 111 109 112 110 117 148 148 145 137 138 130 119 113 109 104 88 76 69 46 40 34 18 37 60 71 43 39
204 181 237 36 49 9 176 127 96 76 80 67 50 23 351 69 92 100 108 108 108 114 98 100 112 98 104 124 127 133 125 121 121 111 118 110 103 99 94 92 73 49 10 6 44 69 65 77 46
184 200 202 169 18 55 145 132 90 97 53 65 63 33 67 83 98 107 109 117 106 94 95 102 106 95 77 74 61 104 112 111 115 115 122 113 107 105 103 107 105 110 169 225 64 74 87 81 166
207 215 257 313 89 153 161 94 105 90 67 69 66 77 81 77 102 108 116 116 106 95 99 104 101 88 68 61 74 81 102 109 117 119 122 117 114 113 111 118 122 125 137 121 115 119 111 127 142
252 224 267 334 344 179 91 101 85 78 74 64 71 91 73 104 111 114 122 112 97 99 104 103 92 85 79 79 73 81 101 118 121 120 125 115 116 110 115 121 128 126 126 117 116 94 112 133 138
260 249 265 327 35 142 76 73 80 86 83 72 92 79 92 112 123 123 120 107 97 103 99 104 96 85 92 83 93 105 119 127 125 127 123 119 114 109 111 114 123 123 114 113 111 112 114 122 133
197 266 272 346 320 324 212 71 82 97 53 72 73 51 117 126 129 117 118 104 103 98 102 100 106 101 108 115 101 114 124 125 129 128 123 117 109 103 107 96 112 118 110 111 109 116 119 126 138
206 270 279 313 328 315 184 95 83 85 73 72 31 88 120 131 127 119 119 109 104 103 113 110 110 127 117 102 102 120 121 126 135 136 128 123 108 107 99 88 103 108 109 114 122 107 107 130 158
235 265 295 320 356 358 271 208 312 88 82 92 42 94 123 133 130 129 123 116 113 109 122 113 119 113 130 97 119 124 126 129 139 134 132 131 118 113 79 117 102 97 106 109 116 113 85 329 219
276 266 278 273 303 101 147 186 61 112 96 103 91 111 129 133 133 136 127 122 113 115 127 120 107 136 132 103 136 130 140 135 144 130 156 150 99 237 144 107 122 117 96 120 133 116 70 59 166
264 267 290 288 305 315 319 36 252 73 65 268 105 123 134 134 138 140 130 124 117 122 113 102 93 137 96 124 149 109 146 140 123 136 155 138 72 102 168 162 110 180 125 358 216 137 85 114 129
208 269 261 298 308 277 317 330 316 71 92 141 107 126 137 137 142 143 132 126 123 124 109 111 121 75 154 162 194 127 149 150 95 118 156 127 143 111 149 152 84 140 80 112 118 136 107 139 140
218 203 240 271 271 297 284 332 27 97 110 103 109 125 139 140 147 144 133 129 129 132 112 108 107 255 202 204 231 194 314 244 174 119 119 120 168 98 139 108 270 129 162 128 137 128 173 193 55
254 235 244 225 258 299 302 301 313 91 126 103 116 127 140 146 151 142 135 131 131 137 119 112 108 117 248 206 216 212 330 23 184 353 178 84 175 42 172 115 101 112 132 131 135 129 75 153 133
259 243 239 233 210 234 260 283 309 315 261 81 121 130 143 148 150 147 143 136 134 140 132 120 121 124 102 203 195 207 274 118 56 133 148 164 204 269 217 180 118 122 125 137 161 128 147 144 156
267 255 247 247 194 208 263 286 286 280 283 117 128 139 145 150 152 152 145 139 138 141 139 131 136 127 114 94 180 198 217 270 109 172 132 162 45 38 166 174 153 140 144 99 123 163 145 175 167
264 263 254 262 246 226 248 275 283 267 220 243 137 148 149 153 158 153 148 144 141 141 144 146 174 140 134 133 193 197 223 264 205 96 138 121 158 101 140 158 154 161 114 135 113 151 147 149 122
259 260 263 264 260 260 258 268 269 267 273 238 230 156 158 158 160 153 153 149 146 147 149 154 157 153 165 220 244 198 228 198 149 121 134 163 171 145 165 162 150 157 109 121 140 160 161 150 130
259 262 260 265 260 263 264 270 252 269 272 217 215 157 162 160 156 160 158 154 153 154 157 160 173 163 197 241 214 206 223 199 201 128 130 94 189 64 143 153 169 146 130 123 137 141 159 167 171
263 260 260 261 272 260 264 265 248 255 223 218 212 164 163 163 160 158 162 161 158 160 163 166 183 181 204 241 220 210 213 199 128 153 68 185 163 166 179 151 183 156 151 124 113 139 147 157 150
261 266 262 260 263 259 264 263 252 213 196 199 210 168 165 167 166 163 162 165 165 164 169 175 182 201 206 236 240 216 219 215 207 192 154 121 155 157 127 107 145 181 182 125 140 150 142 142 135
262 266 267 262 261 261 256 261 264 236 237 238 250 206 169 169 169 168 165 168 166 164 168 180 184 199 201 224 241 243 213 213 208 134 148 111 154 166 137 89 99 152 176 114 171 184 151 182 136
267 265 265 265 260 255 255 255 260 255 234 224 260 228 201 179 177 175 171 165 167 167 167 170 180 184 197 187 237 233 197 218 225 209 125 87 120 161 173 112 100 129 150 108 148 172 201 212 244
261 261 256 257 254 253 258 255 253 263 237 219 235 199 191 192 183 186 178 171 169 170 171 171 175 183 184 191 187 242 176 208 224 222 202 128 126 132 151 126 104 122 138 110 138 166 201 142 197
254 254 252 253 256 256 259 254 251 255 258 226 211 198 242 205 190 187 183 176 173 172 170 172 176 183 184 192 185 219 230 215 224 242 244 269 147 150 145 134 119 126 138 142 134 150 163 153 134
256 252 255 258 261 256 259 263 253 258 253 260 220 213 258 222 190 186 184 183 178 176 177 176 176 181 193 190 201 202 218 237 243 243 249 243 227 258 133 133 119 138 150 156 136 162 154 157 123
258 257 253 252 252 252 256 257 257 254 253 251 252 233 224 228 223 183 194 189 186 184 182 184 185 184 195 207 218 218 218 205 247 217 250 250 240 219 130 137 130 133 154 166 144 168 152 146 144
256 256 255 262 253 251 252 257 268 258 250 252 250 255 240 234 239 200 193 199 199 191 187 183 185 194 196 206 212 215 213 219 209 247 225 205 218 247 273 294 17 121 149 159 164 180 177 152 149
262 257 253 252 252 256 248 251 312 303 240 247 254 249 254 229 198 210 256 194 205 194 188 184 182 186 193 200 219 219 228 222 218 205 213 217 205 255 264 262 292 235 140 156 164 167 185 160 160